TimePDT,TemperatureF,Dew PointF,Humidity,Sea Level PressureIn,VisibilityMPH,Wind Direction,Wind SpeedMPH,Gust SpeedMPH,PrecipitationIn,Events,Conditions,WindDirDegrees,DateUTC
12:56 AM,48.9,45.0,86,30.08,10.0,Calm,Calm,-,N/A,,Partly Cloudy,0,2014-04-04 07:56:00
1:10 AM,50.0,44.6,82,30.08,10.0,Calm,Calm,-,N/A,,Mostly Cloudy,0,2014-04-04 08:10:00
1:56 AM,48.9,44.1,83,30.06,10.0,SSE,3.5,-,N/A,,Mostly Cloudy,150,2014-04-04 08:56:00
2:20 AM,48.2,44.6,87,30.06,10.0,Calm,Calm,-,N/A,,Scattered Clouds,0,2014-04-04 09:20:00
2:56 AM,46.9,44.1,90,30.06,10.0,Calm,Calm,-,N/A,,Partly Cloudy,0,2014-04-04 09:56:00
3:56 AM,46.0,42.1,86,30.04,10.0,ESE,3.5,-,N/A,,Mostly Cloudy,110,2014-04-04 10:56:00
4:14 AM,46.4,42.8,87,30.04,10.0,ESE,3.5,-,N/A,,Scattered Clouds,110,2014-04-04 11:14:00
4:56 AM,45.0,41.0,86,30.03,10.0,Calm,Calm,-,N/A,,Clear,0,2014-04-04 11:56:00
5:56 AM,44.1,39.9,85,30.03,10.0,ESE,3.5,-,N/A,,Clear,120,2014-04-04 12:56:00
6:56 AM,44.1,39.9,85,30.03,10.0,Calm,Calm,-,N/A,,Clear,0,2014-04-04 13:56:00
7:56 AM,46.0,42.1,86,30.04,10.0,Calm,Calm,-,N/A,,Scattered Clouds,0,2014-04-04 14:56:00
8:51 AM,50.0,44.6,82,30.04,10.0,Calm,Calm,-,N/A,,Mostly Cloudy,0,2014-04-04 15:51:00
8:56 AM,50.0,45.0,83,30.04,10.0,Calm,Calm,-,N/A,,Mostly Cloudy,0,2014-04-04 15:56:00
9:56 AM,55.0,45.0,69,30.05,10.0,Calm,Calm,-,N/A,,Overcast,0,2014-04-04 16:56:00
10:56 AM,57.0,44.1,62,30.05,10.0,Calm,Calm,-,N/A,,Overcast,0,2014-04-04 17:56:00
11:56 AM,55.9,48.9,77,30.05,9.0,SW,6.9,-,0.00,Rain,Light Rain,220,2014-04-04 18:56:00
1:56 PM,59.0,48.9,69,30.03,10.0,NW,9.2,-,0.00,,Mostly Cloudy,310,2014-04-04 20:56:00
2:56 PM,62.1,46.9,58,30.02,10.0,NW,20.7,27.6,N/A,,Mostly Cloudy,320,2014-04-04 21:56:00
3:03 PM,60.8,46.4,59,30.02,10.0,NW,19.6,-,N/A,,Clear,310,2014-04-04 22:03:00
3:56 PM,61.0,45.0,56,30.01,10.0,NW,18.4,28.8,N/A,,Mostly Cloudy,310,2014-04-04 22:56:00
4:56 PM,60.1,44.1,55,30.01,10.0,WNW,19.6,27.6,N/A,,Mostly Cloudy,300,2014-04-04 23:56:00
5:56 PM,59.0,44.1,58,30.00,10.0,WNW,18.4,28.8,N/A,,Mostly Cloudy,300,2014-04-05 00:56:00
6:56 PM,55.0,45.0,69,30.01,10.0,NW,13.8,23.0,N/A,,Mostly Cloudy,310,2014-04-05 01:56:00
7:56 PM,54.0,45.0,72,30.01,10.0,NW,18.4,24.2,N/A,,Clear,320,2014-04-05 02:56:00
8:56 PM,54.0,46.0,75,30.03,10.0,NW,12.7,20.7,N/A,,Partly Cloudy,320,2014-04-05 03:56:00
9:56 PM,54.0,44.1,69,30.04,10.0,NW,12.7,-,N/A,,Overcast,320,2014-04-05 04:56:00
10:56 PM,54.0,44.1,69,30.04,10.0,NW,12.7,-,N/A,,Overcast,310,2014-04-05 05:56:00
11:56 PM,53.1,45.0,74,30.04,10.0,NNW,8.1,-,N/A,,Mostly Cloudy,330,2014-04-05 06:56:00